AirNav   Air Wisconsin pilot careers
 
 962 users online  

23CN Douthitt Strip Airport
El Centro, California, USA

GOING TO EL CENTRO?


FAA INFORMATION EFFECTIVE 03 JANUARY 2019

Location

FAA Identifier: 23CN
Lat/Long: 32-47-20.1990N / 115-31-46.9810W
32-47.336650N / 115-31.783017W
32.7889442 / -115.5297169
(estimated)
Elevation: 45 ft. / 14 m (estimated)
Variation: 13E (1985)
From city: 1 mile E of EL CENTRO, CA
Time zone: UTC -8 (UTC -7 during Daylight Saving Time)
Zip code: 92243

Airport Operations

Airport use: Private use. Permission required prior to landing
Activation date: 06/1948
Control tower: no
ARTCC: LOS ANGELES CENTER
FSS: SAN DIEGO FLIGHT SERVICE STATION
Attendance: UNATNDD
Wind indicator: yes
Segmented circle: yes

Airport Communications

WX ASOS at IPL (4 nm NW): 132.175 (760-355-2851)

Nearby radio navigation aids

VOR radial/distance  VOR name  Freq  Var
IPLr322/2.6IMPERIAL VORTAC115.9014E

Airport Services

Airframe service: MAJOR
Powerplant service: MAJOR

Runway Information

Runway 4/22

Dimensions: 1800 x 100 ft. / 549 x 30 m
Surface: dirt
RUNWAY 4  RUNWAY 22
Traffic pattern: leftleft

Runway 8/26

Dimensions: 1400 x 100 ft. / 427 x 30 m
Surface: dirt
Runway edge markings: RUNWAY MARKED WITH R.
RUNWAY 8  RUNWAY 26
Traffic pattern: leftleft

Airport Ownership and Management from official FAA records

Ownership: Privately-owned
Owner: R. DOUTHITT ENT. INC.
717 SANDALWOOD DR
EL CENTRO, CA 92244
Phone (760) 562-0123
Manager: BOB DOUTHITT
717 SANDALWOOD DR
EL CENTRO, CA 92243
Phone (760) 562-0123

Airport Operational Statistics

Aircraft based on the field: 23
Single engine airplanes: 21
Ultralights: 2
    

Additional Remarks

TREES NEAR RWY.

Instrument Procedures

There are no published instrument procedures at 23CN.

Some nearby airports with instrument procedures:

KIPL - Imperial County Airport (4 nm NW)
KNJK - El Centro NAF Airport (Vraciu Field) (7 nm W)
KBWC - Brawley Municipal Airport (12 nm N)
KCLR - Cliff Hatfield Memorial Airport (21 nm N)
KNYL - Yuma Marine Corps Air Station/Yuma International Airport (47 nm E)
 
Loc | Ops | Rwys | IFR | FBO | Links
Com | Nav | Svcs | Stats | Notes
Area around 23CN (Douthitt Strip Airport)
 
Road maps at: MapQuest Bing Google
 
Aerial photo
No photo
 
Sectional chart

 
Airport distance calculator
Flying to Douthitt Strip Airport? Find the distance to fly.

From to 23CN

Sunrise and sunset
Times for 22-Jan-2019
 Local
(UTC-8)
 Zulu
(UTC)
Morning civil twilight06:1714:17
Sunrise06:4414:44
Sunset17:0401:04
Evening civil twilight17:3001:30

Current date and time
Zulu (UTC)  22-Jan-2019 13:36:25
Local (UTC-8)  22-Jan-2019 05:36:25
 
METAR
KIPL 
4nm NW 
221253Z AUTO 25006KT 10SM CLR 06/M01 A3011 RMK AO2 SLP196 T00561006
KNJK 
7nm W 
221256Z AUTO VRB03KT 10SM 07/M03 A3014 RMK AO2 SLP221 T00671028 $
MMML 
17nm SE 
220849Z 30008KT 10SM SKC 11/01 A3004 RMK SLP173 52013 941
TAF
KIPL 
4nm NW 
221120Z 2212/2312 32008KT P6SM SKC FM221700 35017G24KT P6SM SKC FM230100 34010KT P6SM SKC FM230500 27007KT P6SM SKC
KNJK 
7nm W 
2207/2307 28015G25KT 9999 FEW100 530009 530909 531809 QNH3002INS FM220800 30008G15KT 9999 FEW100 530009 530909 531809 QNH3005INS BECMG 2217/2218 34022G30KT 9999 FEW100 530009 530909 531809 QNH3018INS TEMPO 2301/2307 32012G20KT AUTOMATED SENSOR METWATCH 2207 TIL 2214 T06/2214Z T20/2223Z FS30118
MMML 
17nm SE 
220315Z 2206/2306 27007KT P6SM SKC FM221800 34020KT P6SM SCT120 BKN250 FM230500 34008KT P6SM SKC
NOTAMs
Click for the latest NOTAMs
NOTAMs are issued by the DoD/FAA and will open in a separate window not controlled by AirNav.

 

 
 

Would you like to see your business listed on this page?

 If your business provides an interesting product or service to pilots, flight crews, aircraft, or users of the Douthitt Strip Airport, you should consider listing it here.  To start the listing process, click on the button below
 
Add a business
 

Other Pages about Douthitt Strip Airport

Update a link
 
Copyright © AirNav, LLC. All rights reserved. Privacy Policy  Contact